Waarnemingen

Advertentie
Mijn weer
Cordoba Aeropuerto (AWS), Spanje (8410): temperatuur & dauwpunt: 14.07.2018 18:00:00 - 20.07.2018 18:00:00 (CEST)Cordoba Aeropuerto (AWS), Spanje (8410): windsnelheid: 14.07.2018 18:00:00 - 20.07.2018 18:00:00 (CEST)Cordoba Aeropuerto (AWS), Spanje (8410): windrichting: 14.07.2018 18:00:00 - 20.07.2018 18:00:00 (CEST)Cordoba Aeropuerto (AWS), Spanje (8410): luchtdruk: 14.07.2018 18:00:00 - 20.07.2018 18:00:00 (CEST)Cordoba Aeropuerto (AWS), Spanje (8410): zicht: 14.07.2018 18:00:00 - 20.07.2018 18:00:00 (CEST)
Datum & Tijd tt [°C] td [°C] ff [km/u] ff [kn] dd ppp [hPa] vv [km]
20.07.2018 18:00:00 36,1 8,8 21 11 WZW 1010,9 -
20.07.2018 17:00:00 36,0 8,7 16 9 WZW 1011,6 50
20.07.2018 16:00:00 35,4 8,3 16 9 WZW 1012,3 -
20.07.2018 15:00:00 34,1 9,4 15 8 WZW 1013,0 -
20.07.2018 14:00:00 32,6 9,4 13 7 ZW 1013,8 -
20.07.2018 13:00:00 31,2 10,0 9 5 W 1014,4 -
20.07.2018 12:00:00 28,7 12,4 5 3 W 1015,1 -
20.07.2018 11:00:00 27,0 12,4 4 2 Z 1015,5 50
20.07.2018 10:00:00 23,0 13,2 2 1 NO 1015,6 -
20.07.2018 09:00:00 21,3 13,2 0 0 N 1015,6 -
20.07.2018 08:00:00 18,1 12,8 4 2 ZZO 1015,4 40
20.07.2018 07:00:00 17,6 13,5 0 0 N 1015,0 -
20.07.2018 06:00:00 18,2 13,5 4 2 W 1015,0 -
20.07.2018 05:00:00 19,2 12,7 8 4 ZW 1015,2 -
20.07.2018 04:00:00 20,4 11,7 9 5 WZW 1015,0 -
20.07.2018 03:00:00 21,8 11,2 9 5 ZZW 1015,1 -
20.07.2018 02:00:00 23,1 11,2 9 5 ZW 1014,8 -
20.07.2018 01:00:00 24,3 10,6 11 6 WZW 1014,8 -
20.07.2018 00:00:00 26,7 11,2 16 9 WZW 1014,4 -
19.07.2018 23:00:00 27,0 8,9 8 4 WZW 1014,0 -
19.07.2018 22:00:00 28,4 8,6 5 3 WZW 1012,9 -
19.07.2018 21:00:00 32,7 4,5 9 5 WZW 1012,4 -
19.07.2018 20:00:00 34,8 2,3 15 8 WZW 1012,2 40
19.07.2018 19:00:00 36,0 4,3 18 10 W 1012,3 -
19.07.2018 18:00:00 36,0 5,3 15 8 W 1012,6 -
19.07.2018 17:00:00 36,0 7,7 16 9 W 1013,1 -
19.07.2018 16:00:00 35,4 7,5 16 9 W 1013,5 -
19.07.2018 15:00:00 34,1 8,8 15 8 W 1014,2 -
19.07.2018 14:00:00 32,7 10,1 11 6 W 1014,7 40
19.07.2018 13:00:00 31,1 9,6 11 6 W 1015,3 -
19.07.2018 12:00:00 29,2 8,9 9 5 W 1015,7 -
19.07.2018 11:00:00 27,0 12,7 0 0 N 1016,1 35
19.07.2018 10:00:00 25,5 12,7 4 2 Z 1016,0 -
19.07.2018 09:00:00 23,2 13,7 0 0 N 1016,0 -
19.07.2018 08:00:00 19,6 13,6 4 2 NNO 1015,8 30
19.07.2018 07:00:00 18,2 13,1 5 3 Z 1015,4 -
19.07.2018 06:00:00 18,5 12,9 5 3 W 1015,4 -
19.07.2018 05:00:00 19,5 13,0 8 4 WZW 1015,5 -
19.07.2018 04:00:00 20,6 12,6 9 5 WZW 1015,0 -
19.07.2018 03:00:00 22,3 11,7 11 6 WZW 1014,9 -
19.07.2018 02:00:00 22,7 11,4 13 7 W 1014,8 -
19.07.2018 01:00:00 24,5 9,6 13 7 W 1014,4 -
19.07.2018 00:00:00 24,5 10,7 11 6 WZW 1014,0 -
18.07.2018 23:00:00 24,7 11,3 11 6 WZW 1013,6 -
18.07.2018 22:00:00 28,8 7,9 8 4 ZW 1012,7 -
18.07.2018 21:00:00 32,8 6,1 13 7 W 1012,4 -
18.07.2018 20:00:00 34,5 9,7 16 9 W 1012,2 40
18.07.2018 19:00:00 35,5 9,1 15 8 WZW 1012,3 -
18.07.2018 18:00:00 35,5 8,3 16 9 W 1012,6 -
18.07.2018 17:00:00 35,5 7,4 13 7 W 1012,8 -
18.07.2018 16:00:00 34,5 8,8 16 9 W 1013,4 -
18.07.2018 15:00:00 34,1 7,2 15 8 WZW 1013,8 -
18.07.2018 14:00:00 32,7 8,9 13 7 W 1014,5 40
18.07.2018 13:00:00 31,2 8,2 9 5 ZW 1015,1 -
18.07.2018 12:00:00 29,7 8,8 11 6 WZW 1015,4 -
18.07.2018 11:00:00 27,9 9,2 5 3 W 1015,6 40
18.07.2018 10:00:00 26,4 10,5 0 0 N 1015,7 -
18.07.2018 09:00:00 24,3 11,6 0 0 N 1015,4 -
18.07.2018 08:00:00 20,4 12,1 0 0 N 1014,8 40
18.07.2018 07:00:00 19,2 12,0 4 2 NNO 1014,5 -
18.07.2018 06:00:00 20,0 11,2 9 5 ZZW 1014,1 -
18.07.2018 05:00:00 21,1 11,1 13 7 Z 1014,0 -
18.07.2018 04:00:00 21,9 11,6 13 7 W 1013,9 -
18.07.2018 03:00:00 22,4 11,5 13 7 WZW 1013,9 -
18.07.2018 02:00:00 24,8 9,9 13 7 WZW 1013,5 -
18.07.2018 01:00:00 26,8 2,6 13 7 WZW 1013,3 -
18.07.2018 00:00:00 28,2 0,8 21 11 ZW 1012,5 -
17.07.2018 23:00:00 28,9 -0,3 11 6 ZW 1011,7 -
17.07.2018 22:00:00 30,2 0,7 8 4 W 1010,9 -
17.07.2018 21:00:00 34,1 -0,5 18 10 Z 1009,9 -
17.07.2018 20:00:00 37,1 -1,0 21 11 Z 1009,7 40
17.07.2018 19:00:00 38,7 1,6 15 8 ZZW 1009,7 -
17.07.2018 18:00:00 39,2 2,0 18 10 Z 1010,3 -
17.07.2018 17:00:00 39,1 4,5 13 7 ZW 1010,8 40
17.07.2018 16:00:00 38,0 4,8 16 9 W 1011,7 -
17.07.2018 15:00:00 36,8 6,9 11 6 WZW 1012,5 -
17.07.2018 14:00:00 35,2 8,9 9 5 W 1013,4 40
17.07.2018 13:00:00 33,8 9,6 5 3 ONO 1014,2 -
17.07.2018 12:00:00 31,0 10,0 11 6 O 1014,9 -
17.07.2018 11:00:00 28,1 9,9 13 7 O 1015,4 40
17.07.2018 10:00:00 25,2 11,7 8 4 ONO 1015,8 -
17.07.2018 09:00:00 22,2 11,6 8 4 O 1016,0 -
17.07.2018 08:00:00 18,6 11,9 0 0 N 1015,9 40
17.07.2018 07:00:00 16,8 12,9 0 0 N 1015,8 -
17.07.2018 06:00:00 17,6 11,4 5 3 Z 1015,7 -
17.07.2018 05:00:00 18,3 12,7 0 0 N 1015,6 -
17.07.2018 04:00:00 18,9 14,2 2 1 W 1015,8 -
17.07.2018 03:00:00 20,2 13,9 4 2 Z 1015,8 -
17.07.2018 02:00:00 21,4 12,8 4 2 WZW 1016,0 -
17.07.2018 01:00:00 22,7 14,5 0 0 N 1015,9 -
17.07.2018 00:00:00 25,0 14,2 4 2 ZW 1015,9 -
16.07.2018 23:00:00 26,4 13,4 2 1 Z 1015,8 -
16.07.2018 22:00:00 27,4 13,3 8 4 WNW 1015,3 -
16.07.2018 21:00:00 32,1 11,8 11 6 W 1015,0 -
16.07.2018 20:00:00 33,4 11,3 9 5 W 1014,9 30
16.07.2018 19:00:00 33,8 11,0 8 4 ZZW 1015,1 -
16.07.2018 18:00:00 33,8 11,6 8 4 Z 1015,8 -
16.07.2018 17:00:00 32,7 11,8 4 2 ZW 1016,4 30
16.07.2018 16:00:00 32,1 12,3 8 4 ZZO 1017,1 -
16.07.2018 15:00:00 31,1 12,0 9 5 ZW 1018,1 -
16.07.2018 14:00:00 29,7 12,2 9 5 ZW 1018,8 20
16.07.2018 13:00:00 28,5 12,8 5 3 ZZW 1019,4 -
16.07.2018 12:00:00 26,6 14,6 9 5 ZZW 1019,7 -
16.07.2018 11:00:00 25,0 15,0 4 2 ZO 1019,9 20
16.07.2018 10:00:00 22,0 15,8 0 0 N 1020,5 -
16.07.2018 09:00:00 20,4 15,8 2 1 W 1020,6 -
16.07.2018 08:00:00 18,3 15,5 0 0 N 1020,4 20
16.07.2018 07:00:00 17,0 15,0 5 3 W 1020,2 -
16.07.2018 06:00:00 17,6 14,9 5 3 ZZW 1020,0 -
16.07.2018 05:00:00 18,2 15,1 5 3 ZW 1019,9 -
16.07.2018 04:00:00 18,7 15,2 5 3 ZZW 1020,1 -
16.07.2018 03:00:00 18,7 15,2 5 3 ZW 1020,1 -
16.07.2018 02:00:00 19,6 14,8 4 2 WZW 1020,2 -
16.07.2018 01:00:00 20,4 14,5 11 6 WZW 1020,1 -
16.07.2018 00:00:00 21,3 13,7 13 7 WZW 1019,8 -
15.07.2018 23:00:00 22,5 13,8 22 12 WZW 1019,0 -
15.07.2018 22:00:00 23,9 13,7 24 13 ZW 1017,9 -
15.07.2018 21:00:00 26,4 13,2 28 15 ZW 1016,9 -
15.07.2018 20:00:00 28,9 10,1 21 11 WZW 1016,2 40
15.07.2018 19:00:00 29,8 6,2 22 12 WZW 1016,4 -
15.07.2018 18:00:00 29,4 8,9 21 11 WZW 1016,9 -
15.07.2018 17:00:00 29,5 10,8 22 12 WZW 1017,1 40
15.07.2018 16:00:00 29,3 12,3 22 12 W 1017,3 -
15.07.2018 15:00:00 28,5 13,2 18 10 WZW 1017,8 -
15.07.2018 14:00:00 26,9 14,3 18 10 ZW 1018,5 40
15.07.2018 13:00:00 25,8 13,6 11 6 W 1019,2 -
15.07.2018 12:00:00 25,1 14,2 8 4 Z 1019,5 -
15.07.2018 11:00:00 22,0 13,9 2 1 WZW 1019,9 30
15.07.2018 10:00:00 21,2 14,4 0 0 N 1020,0 -
15.07.2018 09:00:00 19,8 14,2 0 0 N 1020,0 -
15.07.2018 08:00:00 19,0 14,5 8 4 ZW 1019,8 25
15.07.2018 07:00:00 18,6 14,5 9 5 ZW 1019,6 -
15.07.2018 06:00:00 18,5 14,6 8 4 WZW 1019,1 -
15.07.2018 05:00:00 18,3 14,8 9 5 WZW 1019,3 -
15.07.2018 04:00:00 18,1 14,8 9 5 ZW 1020,0 -
15.07.2018 03:00:00 18,1 14,0 16 9 ZW 1019,9 -
15.07.2018 02:00:00 19,0 12,7 15 8 ZW 1019,8 -
15.07.2018 01:00:00 20,0 12,0 13 7 WZW 1020,1 -
15.07.2018 00:00:00 21,7 12,3 21 11 WZW 1019,4 -
14.07.2018 23:00:00 23,5 10,5 26 14 WZW 1018,4 -
14.07.2018 22:00:00 25,6 9,8 21 11 ZW 1017,1 -
14.07.2018 21:00:00 28,5 9,7 18 10 W 1016,3 -
14.07.2018 20:00:00 30,4 10,9 21 11 W 1015,6 30
14.07.2018 19:00:00 31,2 11,7 22 12 W 1015,4 -
14.07.2018 18:00:00 31,5 13,3 22 12 W 1015,9 -

tt = temperatuur
td = dauwpunt
ff = windsnelheid
dd = windrichting
ppp = luchtdruk
vv = zicht

Weerstations in de omgeving